GSAT-18

Last updated on Thu Sep 10 2026 00:02:58 GMT+0000 (Coordinated Universal Time)

1 41793U 16060A 26252.45771515 -.00000098 00000+0 00000+0 0 9995 2 41793 0.0099 195.4324 0002900 279.2750 112.5625 1.00270182 36377
UTC large
Height (km)
Speed (km/s)
/
Latitude / Longitude
Inclination (degrees)
Orbital Period (minutes)
Azimuth
Elevation
Range (km)
Doppler Factor

Next 0 passes for location: London (51.5072 / 0.1276)

No passes found over London.
GSAT-18